| time (UTC) | temp F | wind direction | speed MPH | gust MPH | rain 1hr in | rain 24hr in | rain mn in | humidity % | barometer mb |
| 20260901172436 | 75 | 293 | 3.0 | 4.0 | 0.00 | 0.00 | 0.00 | 58 | 1018.2 |
| 20260901171934 | 75 | 225 | 2.0 | 3.0 | 0.00 | 0.00 | 0.00 | 57 | 1018.2 |
| 20260901171433 | 73 | 261 | 2.0 | 3.0 | 0.00 | 0.00 | 0.00 | 57 | 1018.3 |
| 20260901170932 | 74 | 288 | 2.0 | 3.0 | 0.00 | 0.00 | 0.00 | 61 | 1018.1 |
| 20260901170427 | 75 | 285 | 2.0 | 2.0 | 0.00 | 0.00 | 0.00 | 61 | 1018.1 |
| 20260901165926 | 74 | 329 | 1.0 | 4.0 | 0.00 | 0.00 | 0.00 | 62 | 1018.1 |
| 20260901165421 | 73 | 265 | 3.0 | 4.0 | 0.00 | 0.00 | 0.00 | 64 | 1018.1 |
| 20260901164918 | 72 | 264 | 2.0 | 4.0 | 0.00 | 0.00 | 0.00 | 65 | 1018.3 |
| 20260901164413 | 72 | 327 | 3.0 | 3.0 | 0.00 | 0.00 | 0.00 | 62 | 1018.1 |
| 20260901163913 | 72 | 251 | 2.0 | 3.0 | 0.00 | 0.00 | 0.00 | 64 | 1018.2 |
| 20260901163408 | 73 | 339 | 2.0 | 3.0 | 0.00 | 0.00 | 0.00 | 62 | 1018.1 |
| 20260901162902 | 72 | 296 | 2.0 | 3.0 | 0.00 | 0.00 | 0.00 | 65 | 1017.9 |
| 20260901162401 | 72 | 277 | 2.0 | 3.0 | 0.00 | 0.00 | 0.00 | 64 | 1017.9 |
| 20260901161855 | 72 | 292 | 0.0 | 3.0 | 0.00 | 0.00 | 0.00 | 65 | 1017.6 |
| 20260901161349 | 71 | 286 | 2.0 | 3.0 | 0.00 | 0.00 | 0.00 | 65 | 1017.6 |
| 20260901160844 | 72 | 312 | 3.0 | 4.0 | 0.00 | 0.00 | 0.00 | 64 | 1017.9 |
| 20260901160341 | 72 | 289 | 0.0 | 2.0 | 0.00 | 0.00 | 0.00 | 64 | 1017.8 |
| 20260901155840 | 70 | 293 | 1.0 | 2.0 | 0.00 | 0.00 | 0.00 | 68 | 1017.6 |
| 20260901155335 | 72 | 260 | 1.0 | 2.0 | 0.00 | 0.00 | 0.00 | 66 | 1017.8 |
| 20260901154832 | 71 | 140 | 1.0 | 2.0 | 0.00 | 0.00 | 0.00 | 66 | 1017.7 |
| 20260901154331 | 70 | 319 | 0.0 | 2.0 | 0.00 | 0.00 | 0.00 | 69 | 1017.8 |
| 20260901153830 | 70 | 21 | 0.0 | 1.0 | 0.00 | 0.00 | 0.00 | 66 | 1017.8 |
| 20260901153325 | 68 | 103 | 2.0 | 3.0 | 0.00 | 0.00 | 0.00 | 69 | 1017.9 |
| 20260901152824 | 68 | 101 | 2.0 | 4.0 | 0.00 | 0.00 | 0.00 | 71 | 1017.8 |
| 20260901152323 | 68 | 52 | 3.0 | 4.0 | 0.00 | 0.00 | 0.00 | 70 | 1017.9 |
| 20260901151814 | 66 | 28 | 2.0 | 9.0 | 0.00 | 0.00 | 0.00 | 75 | 1017.7 |
| 20260901151314 | 64 | 15 | 0.0 | 10.0 | 0.00 | 0.00 | 0.00 | 76 | 1017.9 |
| 20260901150808 | 64 | 44 | 6.0 | 9.0 | 0.00 | 0.00 | 0.00 | 75 | 1017.7 |
| 20260901150306 | 65 | 45 | 4.0 | 6.0 | 0.00 | 0.00 | 0.00 | 75 | 1017.8 |
| 20260901145803 | 64 | 52 | 6.0 | 11.0 | 0.00 | 0.00 | 0.00 | 75 | 1017.6 |
| 20260901145257 | 64 | 351 | 2.0 | 7.0 | 0.00 | 0.00 | 0.00 | 75 | 1017.5 |
| 20260901144753 | 63 | 68 | 5.0 | 9.0 | 0.00 | 0.00 | 0.00 | 76 | 1017.7 |
| 20260901144249 | 64 | 41 | 5.0 | 7.0 | 0.00 | 0.00 | 0.00 | 75 | 1017.9 |
| 20260901143744 | 63 | 45 | 3.0 | 10.0 | 0.00 | 0.00 | 0.00 | 75 | 1017.8 |
| 20260901143240 | 63 | 40 | 4.0 | 7.0 | 0.00 | 0.00 | 0.00 | 76 | 1017.8 |
| 20260901142736 | 62 | 29 | 4.0 | 7.0 | 0.00 | 0.00 | 0.00 | 77 | 1017.7 |
| 20260901142235 | 62 | 43 | 4.0 | 8.0 | 0.00 | 0.00 | 0.00 | 77 | 1017.8 |
| 20260901141725 | 62 | 40 | 4.0 | 8.0 | 0.00 | 0.00 | 0.00 | 77 | 1017.5 |
| 20260901141224 | 60 | 37 | 5.0 | 9.0 | 0.00 | 0.00 | 0.00 | 79 | 1017.9 |
| 20260901140723 | 60 | 61 | 6.0 | 9.0 | 0.00 | 0.00 | 0.00 | 80 | 1017.8 |
| 20260901140222 | 58 | 41 | 6.0 | 8.0 | 0.00 | 0.00 | 0.00 | 82 | 1017.7 |
| 20260901135718 | 57 | 39 | 6.0 | 10.0 | 0.00 | 0.00 | 0.00 | 85 | 1017.6 |
| 20260901135217 | 56 | 36 | 4.0 | 9.0 | 0.00 | 0.00 | 0.00 | 85 | 1017.6 |
| 20260901134713 | 56 | 51 | 5.0 | 9.0 | 0.00 | 0.00 | 0.00 | 85 | 1017.6 |
| 20260901134209 | 56 | 102 | 7.0 | 8.0 | 0.00 | 0.00 | 0.00 | 85 | 1017.5 |
| 20260901133708 | 56 | 60 | 3.0 | 9.0 | 0.00 | 0.00 | 0.00 | 85 | 1017.4 |
| 20260901133207 | 56 | 111 | 4.0 | 7.0 | 0.00 | 0.00 | 0.00 | 85 | 1017.1 |
| 20260901132701 | 56 | 44 | 7.0 | 8.0 | 0.00 | 0.00 | 0.00 | 85 | 1017.5 |
| 20260901132156 | 56 | 53 | 5.0 | 8.0 | 0.00 | 0.00 | 0.00 | 86 | 1017.4 |
| 20260901131655 | 56 | 67 | 2.0 | 7.0 | 0.00 | 0.00 | 0.00 | 86 | 1017.2 |
| 20260901131155 | 55 | 12 | 1.0 | 4.0 | 0.00 | 0.00 | 0.00 | 86 | 1017.5 |
| 20260901130650 | 55 | 28 | 3.0 | 5.0 | 0.00 | 0.00 | 0.00 | 86 | 1017.5 |
| 20260901130149 | 56 | 98 | 3.0 | 4.0 | 0.00 | 0.00 | 0.00 | 86 | 1017.4 |
| 20260901125647 | 56 | 55 | 2.0 | 5.0 | 0.00 | 0.00 | 0.00 | 86 | 1017.4 |
| 20260901125142 | 56 | 53 | 4.0 | 6.0 | 0.00 | 0.00 | 0.00 | 86 | 1017.1 |
| 20260901124637 | 56 | 32 | 2.0 | 5.0 | 0.00 | 0.00 | 0.00 | 86 | 1017.1 |
| 20260901124136 | 56 | 94 | 2.0 | 3.0 | 0.00 | 0.00 | 0.00 | 85 | 1017.4 |
| 20260901123631 | 56 | 19 | 4.0 | 6.0 | 0.00 | 0.00 | 0.00 | 85 | 1017.1 |
| 20260901123132 | 56 | 35 | 4.0 | 5.0 | 0.00 | 0.00 | 0.00 | 85 | 1017.0 |
| 20260901122630 | 56 | 38 | 3.0 | 6.0 | 0.00 | 0.00 | 0.00 | 85 | 1017.1 |
| 20260901122125 | 56 | 62 | 3.0 | 4.0 | 0.00 | 0.00 | 0.00 | 85 | 1017.2 |
| 20260901121620 | 56 | 355 | 2.0 | 4.0 | 0.00 | 0.00 | 0.00 | 84 | 1017.2 |
| 20260901121115 | 56 | 34 | 3.0 | 4.0 | 0.00 | 0.00 | 0.00 | 84 | 1017.1 |
| 20260901120614 | 56 | 58 | 4.0 | 4.0 | 0.00 | 0.00 | 0.00 | 84 | 1017.1 |
| 20260901120110 | 56 | 69 | 2.0 | 6.0 | 0.00 | 0.00 | 0.00 | 83 | 1017.1 |
| 20260901115604 | 56 | 45 | 5.0 | 5.0 | 0.00 | 0.00 | 0.00 | 83 | 1017.1 |
| 20260901115101 | 57 | 35 | 5.0 | 7.0 | 0.00 | 0.00 | 0.00 | 83 | 1017.0 |
| 20260901114558 | 57 | 63 | 4.0 | 4.0 | 0.00 | 0.00 | 0.00 | 83 | 1017.0 |
| 20260901114056 | 57 | 56 | 3.0 | 6.0 | 0.00 | 0.00 | 0.00 | 82 | 1016.9 |
| 20260901113555 | 56 | 48 | 6.0 | 6.0 | 0.00 | 0.00 | 0.00 | 83 | 1016.8 |
| 20260901113046 | 56 | 46 | 2.0 | 6.0 | 0.00 | 0.00 | 0.00 | 82 | 1016.9 |
| 20260901112545 | 57 | 68 | 4.0 | 5.0 | 0.00 | 0.00 | 0.00 | 82 | 1017.0 |
| 20260901112040 | 57 | 47 | 5.0 | 6.0 | 0.00 | 0.00 | 0.00 | 82 | 1016.8 |
| 20260901111539 | 57 | 29 | 4.0 | 5.0 | 0.00 | 0.00 | 0.00 | 81 | 1017.2 |
| 20260901111037 | 57 | 53 | 3.0 | 6.0 | 0.00 | 0.00 | 0.00 | 81 | 1016.9 |
| 20260901110533 | 57 | 38 | 5.0 | 8.0 | 0.00 | 0.00 | 0.00 | 80 | 1016.6 |
| 20260901110029 | 57 | 42 | 5.0 | 6.0 | 0.00 | 0.00 | 0.00 | 80 | 1016.9 |
| 20260901105526 | 57 | 32 | 4.0 | 6.0 | 0.00 | 0.00 | 0.00 | 80 | 1016.9 |
| 20260901105024 | 58 | 56 | 4.0 | 6.0 | 0.00 | 0.00 | 0.00 | 79 | 1017.0 |
| 20260901104521 | 58 | 48 | 4.0 | 6.0 | 0.00 | 0.00 | 0.00 | 79 | 1016.9 |
| 20260901104015 | 58 | 53 | 5.0 | 9.0 | 0.00 | 0.00 | 0.00 | 79 | 1017.2 |
| 20260901103510 | 58 | 49 | 5.0 | 7.0 | 0.00 | 0.00 | 0.00 | 79 | 1017.0 |
| 20260901103006 | 58 | 23 | 7.0 | 7.0 | 0.00 | 0.00 | 0.00 | 79 | 1017.0 |
| 20260901102505 | 58 | 65 | 5.0 | 9.0 | 0.00 | 0.00 | 0.00 | 79 | 1017.1 |
| 20260901102000 | 58 | 66 | 5.0 | 10.0 | 0.00 | 0.00 | 0.00 | 79 | 1016.9 |
| 20260901101455 | 58 | 55 | 7.0 | 8.0 | 0.00 | 0.00 | 0.00 | 79 | 1017.1 |
| 20260901100949 | 57 | 44 | 4.0 | 8.0 | 0.00 | 0.00 | 0.00 | 79 | 1017.1 |
| 20260901100444 | 57 | 69 | 4.0 | 7.0 | 0.00 | 0.00 | 0.00 | 80 | 1017.2 |
| 20260901095943 | 57 | 27 | 4.0 | 8.0 | 0.00 | 0.00 | 0.00 | 79 | 1017.1 |
| 20260901095443 | 57 | 12 | 6.0 | 7.0 | 0.00 | 0.00 | 0.00 | 80 | 1017.2 |
| 20260901094941 | 57 | 307 | 2.0 | 5.0 | 0.00 | 0.00 | 0.00 | 80 | 1017.2 |
| 20260901094441 | 57 | 27 | 4.0 | 8.0 | 0.00 | 0.00 | 0.00 | 79 | 1017.5 |
| 20260901093935 | 58 | 28 | 3.0 | 7.0 | 0.00 | 0.00 | 0.00 | 80 | 1017.5 |
| 20260901093430 | 57 | 50 | 5.0 | 10.0 | 0.00 | 0.00 | 0.00 | 80 | 1017.2 |
| 20260901092925 | 57 | 48 | 5.0 | 10.0 | 0.00 | 0.00 | 0.00 | 80 | 1017.1 |
| 20260901092421 | 57 | 25 | 4.0 | 7.0 | 0.00 | 0.00 | 0.00 | 81 | 1017.2 |
| 20260901091917 | 57 | 28 | 5.0 | 10.0 | 0.00 | 0.00 | 0.00 | 81 | 1017.2 |
| 20260901091417 | 57 | 47 | 8.0 | 13.0 | 0.00 | 0.00 | 0.00 | 80 | 1017.5 |
| 20260901090912 | 57 | 40 | 5.0 | 6.0 | 0.00 | 0.00 | 0.00 | 82 | 1017.7 |
| 20260901090411 | 57 | 55 | 4.0 | 9.0 | 0.00 | 0.00 | 0.00 | 81 | 1017.5 |
| 20260901085907 | 57 | 18 | 3.0 | 13.0 | 0.00 | 0.00 | 0.00 | 80 | 1017.5 |
| 20260901085403 | 57 | 75 | 4.0 | 7.0 | 0.00 | 0.00 | 0.00 | 81 | 1017.4 |
| 20260901084859 | 57 | 45 | 6.0 | 11.0 | 0.00 | 0.00 | 0.00 | 80 | 1017.4 |
| 20260901084355 | 57 | 44 | 10.0 | 11.0 | 0.00 | 0.00 | 0.00 | 80 | 1017.5 |
| 20260901083850 | 57 | 22 | 4.0 | 6.0 | 0.00 | 0.00 | 0.00 | 82 | 1017.7 |
| 20260901083349 | 57 | 57 | 7.0 | 9.0 | 0.00 | 0.00 | 0.00 | 81 | 1017.7 |
| 20260901082843 | 58 | 34 | 4.0 | 18.0 | 0.00 | 0.00 | 0.00 | 80 | 1017.6 |
| 20260901082338 | 57 | 53 | 9.0 | 13.0 | 0.00 | 0.00 | 0.00 | 81 | 1017.6 |
| 20260901081832 | 57 | 54 | 7.0 | 11.0 | 0.00 | 0.00 | 0.00 | 81 | 1017.8 |
| 20260901081327 | 57 | 46 | 8.0 | 10.0 | 0.00 | 0.00 | 0.00 | 82 | 1017.9 |
| 20260901080822 | 57 | 55 | 5.0 | 11.0 | 0.00 | 0.00 | 0.00 | 83 | 1017.9 |
| 20260901080316 | 57 | 45 | 6.0 | 8.0 | 0.00 | 0.00 | 0.00 | 82 | 1017.8 |
| 20260901075810 | 57 | 37 | 6.0 | 7.0 | 0.00 | 0.00 | 0.00 | 83 | 1017.9 |
| 20260901075307 | 58 | 40 | 5.0 | 6.0 | 0.00 | 0.00 | 0.00 | 81 | 1018.3 |
| 20260901074801 | 58 | 33 | 4.0 | 5.0 | 0.00 | 0.00 | 0.00 | 81 | 1018.3 |
| 20260901074255 | 58 | 43 | 3.0 | 6.0 | 0.00 | 0.00 | 0.00 | 81 | 1018.4 |
| 20260901073751 | 57 | 29 | 6.0 | 12.0 | 0.00 | 0.00 | 0.00 | 81 | 1018.4 |
| 20260901073246 | 57 | 351 | 4.0 | 6.0 | 0.00 | 0.00 | 0.00 | 82 | 1018.1 |
| 20260901072742 | 58 | 3 | 3.0 | 7.0 | 0.00 | 0.00 | 0.00 | 81 | 1018.2 |
| 20260901072236 | 58 | 65 | 4.0 | 10.0 | 0.00 | 0.00 | 0.00 | 80 | 1017.8 |
| 20260901071730 | 58 | 50 | 5.0 | 6.0 | 0.00 | 0.00 | 0.00 | 79 | 1017.9 |
| 20260901071225 | 58 | 57 | 4.0 | 6.0 | 0.00 | 0.00 | 0.00 | 79 | 1018.3 |
| 20260901070724 | 58 | 34 | 5.0 | 6.0 | 0.00 | 0.00 | 0.00 | 80 | 1018.3 |
| 20260901070219 | 58 | 34 | 0.0 | 2.0 | 0.00 | 0.00 | 0.00 | 79 | 1018.4 |
| 20260901065719 | 58 | 46 | 4.0 | 9.0 | 0.00 | 0.00 | 0.00 | 79 | 1017.9 |
| 20260901065214 | 58 | 36 | 9.0 | 14.0 | 0.00 | 0.00 | 0.00 | 79 | 1017.8 |
| 20260901064710 | 58 | 70 | 4.0 | 15.0 | 0.00 | 0.00 | 0.00 | 79 | 1017.6 |
| 20260901064206 | 58 | 50 | 9.0 | 14.0 | 0.00 | 0.00 | 0.00 | 79 | 1017.6 |
| 20260901063703 | 58 | 48 | 6.0 | 12.0 | 0.00 | 0.00 | 0.00 | 80 | 1017.7 |
| 20260901063159 | 58 | 45 | 9.0 | 11.0 | 0.00 | 0.00 | 0.00 | 80 | 1018.1 |
| 20260901062654 | 58 | 37 | 10.0 | 11.0 | 0.00 | 0.00 | 0.00 | 80 | 1017.7 |
| 20260901062150 | 58 | 58 | 5.0 | 13.0 | 0.00 | 0.00 | 0.00 | 80 | 1017.8 |
| 20260901061646 | 57 | 34 | 4.0 | 13.0 | 0.00 | 0.00 | 0.00 | 80 | 1017.6 |
| 20260901061146 | 58 | 52 | 5.0 | 11.0 | 0.00 | 0.00 | 0.00 | 81 | 1017.6 |
| 20260901060641 | 58 | 73 | 7.0 | 12.0 | 0.00 | 0.00 | 0.00 | 81 | 1017.6 |
| 20260901060137 | 58 | 18 | 5.0 | 12.0 | 0.00 | 0.00 | 0.00 | 80 | 1017.7 |
| 20260901055632 | 57 | 51 | 6.0 | 11.0 | 0.00 | 0.18 | 0.18 | 82 | 1017.6 |
| 20260901055128 | 57 | 46 | 10.0 | 12.0 | 0.00 | 0.18 | 0.18 | 83 | 1017.6 |
| 20260901054625 | 57 | 51 | 13.0 | 16.0 | 0.00 | 0.18 | 0.18 | 83 | 1017.7 |
| 20260901054121 | 57 | 38 | 6.0 | 11.0 | 0.00 | 0.18 | 0.18 | 83 | 1017.8 |
| 20260901053617 | 57 | 53 | 4.0 | 14.0 | 0.00 | 0.18 | 0.18 | 83 | 1017.6 |
| 20260901053114 | 57 | 38 | 13.0 | 16.0 | 0.02 | 0.18 | 0.18 | 84 | 1017.9 |
| 20260901052612 | 57 | 57 | 6.0 | 21.0 | 0.02 | 0.18 | 0.18 | 83 | 1017.7 |
| 20260901052108 | 58 | 67 | 20.0 | 20.0 | 0.02 | 0.18 | 0.18 | 81 | 1017.6 |
| 20260901051607 | 58 | 68 | 6.0 | 13.0 | 0.00 | 0.18 | 0.18 | 82 | 1018.1 |
| 20260901051106 | 58 | 47 | 7.0 | 13.0 | 0.00 | 0.18 | 0.18 | 81 | 1018.5 |
| 20260901050602 | 58 | 41 | 10.0 | 12.0 | 0.00 | 0.18 | 0.18 | 82 | 1018.5 |
| 20260901050056 | 57 | 56 | 6.0 | 11.0 | 0.00 | 0.18 | 0.18 | 82 | 1018.3 |
| 20260901045551 | 57 | 30 | 4.0 | 15.0 | 0.02 | 0.18 | 0.18 | 84 | 1018.2 |
| 20260901045046 | 57 | 42 | 8.0 | 13.0 | 0.02 | 0.18 | 0.18 | 85 | 1018.4 |
| 20260901044542 | 57 | 47 | 6.0 | 10.0 | 0.02 | 0.17 | 0.17 | 85 | 1018.4 |
| 20260901044038 | 57 | 38 | 6.0 | 15.0 | 0.02 | 0.17 | 0.17 | 83 | 1018.5 |
| 20260901043533 | 59 | 65 | 6.0 | 12.0 | 0.00 | 0.17 | 0.17 | 79 | 1018.4 |
| 20260901043029 | 59 | 58 | 6.0 | 12.0 | 0.00 | 0.17 | 0.17 | 78 | 1018.6 |
| 20260901042528 | 59 | 56 | 11.0 | 13.0 | 0.00 | 0.17 | 0.17 | 78 | 1018.6 |
| 20260901042024 | 59 | 48 | 5.0 | 16.0 | 0.00 | 0.17 | 0.17 | 78 | 1018.5 |
| 20260901041519 | 59 | 28 | 7.0 | 13.0 | 0.00 | 0.17 | 0.17 | 79 | 1017.9 |
| 20260901041014 | 59 | 25 | 5.0 | 16.0 | 0.00 | 0.17 | 0.17 | 79 | 1018.1 |
| 20260901040508 | 59 | 28 | 9.0 | 14.0 | 0.00 | 0.17 | 0.17 | 80 | 1018.2 |
| 20260901040007 | 59 | 50 | 9.0 | 18.0 | 0.00 | 0.17 | 0.17 | 79 | 1017.9 |
| 20260901035505 | 59 | 52 | 9.0 | 18.0 | 0.00 | 0.17 | 0.17 | 82 | 1017.9 |
| 20260901035004 | 59 | 47 | 11.0 | 24.0 | 0.00 | 0.17 | 0.17 | 81 | 1017.7 |
| 20260901034504 | 59 | 7 | 6.0 | 18.0 | 0.02 | 0.17 | 0.17 | 85 | 1018.1 |
| 20260901033959 | 59 | 43 | 10.0 | 11.0 | 0.02 | 0.17 | 0.17 | 88 | 1017.7 |
| 20260901033458 | 59 | 38 | 5.0 | 8.0 | 0.02 | 0.17 | 0.17 | 89 | 1017.7 |
| 20260901032956 | 59 | 43 | 8.0 | 8.0 | 0.05 | 0.17 | 0.17 | 90 | 1017.6 |
| 20260901032451 | 59 | 17 | 2.0 | 3.0 | 0.02 | 0.16 | 0.16 | 92 | 1017.7 |
| 20260901031946 | 59 | 22 | 0.0 | 0.0 | 0.00 | 0.16 | 0.16 | 91 | 1017.8 |
| 20260901031442 | 60 | 326 | 0.0 | 2.0 | 0.02 | 0.16 | 0.16 | 90 | 1017.5 |
| 20260901030942 | 60 | 34 | 3.0 | 4.0 | 0.05 | 0.16 | 0.16 | 88 | 1017.4 |
| 20260901030437 | 60 | 36 | 4.0 | 4.0 | 0.02 | 0.15 | 0.15 | 86 | 1017.1 |
| 20260901025936 | 61 | 92 | 2.0 | 2.0 | 0.00 | 0.15 | 0.15 | 84 | 1017.4 |
| 20260901025431 | 61 | 144 | 2.0 | 6.0 | 0.00 | 0.15 | 0.15 | 81 | 1016.5 |
| 20260901024925 | 60 | 60 | 6.0 | 10.0 | 0.00 | 0.15 | 0.15 | 82 | 1015.9 |
| 20260901024420 | 60 | 48 | 3.0 | 6.0 | 0.00 | 0.15 | 0.15 | 84 | 1015.7 |
| 20260901023919 | 60 | 9 | 2.0 | 4.0 | 0.00 | 0.15 | 0.15 | 86 | 1015.9 |
| 20260901023413 | 60 | 357 | 2.0 | 5.0 | 0.00 | 0.15 | 0.15 | 85 | 1015.7 |
| 20260901022909 | 59 | 29 | 2.0 | 4.0 | 0.02 | 0.15 | 0.15 | 90 | 1015.7 |
| 20260901022405 | 60 | 36 | 2.0 | 3.0 | 0.09 | 0.15 | 0.15 | 90 | 1015.6 |
| 20260901021859 | 60 | 359 | 3.0 | 9.0 | 0.19 | 0.15 | 0.15 | 87 | 1015.8 |
| 20260901021355 | 62 | 68 | 2.0 | 4.0 | 0.09 | 0.13 | 0.13 | 85 | 1016.2 |
| 20260901020850 | 63 | 302 | 2.0 | 2.0 | 0.00 | 0.11 | 0.11 | 82 | 1016.3 |
| 20260901020345 | 64 | 46 | 4.0 | 7.0 | 0.00 | 0.11 | 0.11 | 78 | 1015.6 |
| 20260901015844 | 64 | 31 | 4.0 | 7.0 | 0.00 | 0.11 | 0.11 | 78 | 1015.6 |
| 20260901015341 | 64 | 41 | 9.0 | 13.0 | 0.00 | 0.11 | 0.11 | 77 | 1015.7 |
| 20260901014840 | 63 | 42 | 3.0 | 8.0 | 0.00 | 0.11 | 0.11 | 81 | 1016.2 |
| 20260901014336 | 61 | 36 | 3.0 | 6.0 | 0.00 | 0.11 | 0.11 | 86 | 1015.9 |
| 20260901013831 | 61 | 6 | 0.0 | 3.0 | 0.00 | 0.11 | 0.11 | 90 | 1015.9 |
| 20260901013327 | 60 | 354 | 0.0 | 2.0 | 0.00 | 0.11 | 0.11 | 89 | 1015.9 |
| 20260901012822 | 60 | 43 | 2.0 | 2.0 | 0.00 | 0.11 | 0.11 | 87 | 1016.1 |
| 20260901012317 | 61 | 89 | 0.0 | 2.0 | 0.00 | 0.11 | 0.11 | 85 | 1016.2 |
| 20260901011813 | 63 | 297 | 3.0 | 11.0 | 0.07 | 0.11 | 0.11 | 79 | 1016.1 |
| 20260901011308 | 64 | 233 | 1.0 | 19.0 | 0.05 | 0.11 | 0.11 | 76 | 1015.7 |
| 20260901010802 | 64 | 70 | 6.0 | 11.0 | 0.05 | 0.11 | 0.11 | 79 | 1015.9 |
| 20260901010256 | 64 | 68 | 1.0 | 4.0 | 0.05 | 0.10 | 0.10 | 79 | 1016.8 |
| 20260901005755 | 65 | 97 | 2.0 | 4.0 | 0.07 | 0.10 | 0.10 | 77 | 1016.6 |
| 20260901005250 | 66 | 6 | 0.0 | 5.0 | 0.09 | 0.09 | 0.09 | 76 | 1016.6 |
| 20260901004750 | 66 | 45 | 4.0 | 5.0 | 0.05 | 0.09 | 0.09 | 72 | 1016.5 |
| 20260901004245 | 68 | 336 | 3.0 | 4.0 | 0.00 | 0.08 | 0.08 | 67 | 1016.5 |
| 20260901003744 | 69 | 306 | 4.0 | 7.0 | 0.00 | 0.08 | 0.08 | 61 | 1016.3 |
| 20260901003240 | 69 | 354 | 2.0 | 5.0 | 0.00 | 0.08 | 0.08 | 62 | 1015.9 |
| 20260901002738 | 69 | 160 | 0.0 | 6.0 | 0.00 | 0.08 | 0.08 | 61 | 1015.9 |
| 20260901002233 | 69 | 82 | 4.0 | 6.0 | 0.00 | 0.08 | 0.08 | 61 | 1015.6 |
| 20260901001723 | 69 | 16 | 3.0 | 8.0 | 0.00 | 0.08 | 0.08 | 61 | 1015.5 |
| 20260901001218 | 69 | 64 | 6.0 | 11.0 | 0.00 | 0.08 | 0.08 | 61 | 1015.4 |
| 20260901000713 | 69 | 32 | 6.0 | 9.0 | 0.00 | 0.08 | 0.08 | 62 | 1015.6 |
| 20260901000211 | 69 | 51 | 7.0 | 11.0 | 0.00 | 0.08 | 0.08 | 61 | 1015.4 |
| 20260831235707 | 69 | 48 | 5.0 | 11.0 | 0.00 | 0.08 | 0.08 | 61 | 1015.5 |
| 20260831235203 | 69 | 88 | 7.0 | 10.0 | 0.00 | 0.08 | 0.08 | 61 | 1015.5 |
| 20260831234703 | 69 | 54 | 3.0 | 9.0 | 0.00 | 0.08 | 0.08 | 62 | 1015.6 |
| 20260831234158 | 69 | 68 | 2.0 | 7.0 | 0.00 | 0.08 | 0.08 | 61 | 1015.5 |
| 20260831233653 | 69 | 52 | 5.0 | 7.0 | 0.00 | 0.08 | 0.08 | 61 | 1015.6 |
| 20260831233148 | 70 | 33 | 4.0 | 9.0 | 0.00 | 0.08 | 0.08 | 60 | 1015.6 |
| 20260831232643 | 69 | 18 | 4.0 | 9.0 | 0.00 | 0.08 | 0.08 | 62 | 1015.7 |
| 20260831232140 | 68 | 43 | 8.0 | 11.0 | 0.00 | 0.08 | 0.08 | 63 | 1015.9 |
| 20260831231636 | 68 | 11 | 4.0 | 9.0 | 0.00 | 0.08 | 0.08 | 63 | 1016.2 |
| 20260831231131 | 68 | 37 | 7.0 | 11.0 | 0.00 | 0.08 | 0.08 | 63 | 1015.8 |
| 20260831230621 | 68 | 49 | 11.0 | 13.0 | 0.00 | 0.08 | 0.08 | 63 | 1015.8 |
| 20260831230121 | 68 | 58 | 6.0 | 12.0 | 0.00 | 0.08 | 0.08 | 63 | 1015.8 |
| 20260831225610 | 68 | 13 | 6.0 | 14.0 | 0.00 | 0.08 | 0.08 | 63 | 1016.3 |
| 20260831225104 | 68 | 62 | 8.0 | 12.0 | 0.00 | 0.08 | 0.08 | 64 | 1016.2 |
| 20260831224559 | 68 | 45 | 13.0 | 14.0 | 0.00 | 0.08 | 0.08 | 64 | 1016.1 |
| 20260831224055 | 68 | 71 | 7.0 | 15.0 | 0.00 | 0.08 | 0.08 | 64 | 1016.1 |
| 20260831223550 | 68 | 50 | 8.0 | 16.0 | 0.00 | 0.08 | 0.08 | 64 | 1016.4 |
| 20260831223046 | 68 | 60 | 5.0 | 18.0 | 0.00 | 0.08 | 0.08 | 65 | 1016.4 |
| 20260831222542 | 68 | 44 | 4.0 | 11.0 | 0.00 | 0.08 | 0.08 | 65 | 1016.2 |
| 20260831222036 | 68 | 68 | 12.0 | 16.0 | 0.00 | 0.08 | 0.08 | 64 | 1016.3 |
| 20260831221532 | 67 | 89 | 6.0 | 11.0 | 0.00 | 0.08 | 0.08 | 65 | 1016.6 |
| 20260831221027 | 67 | 92 | 4.0 | 19.0 | 0.00 | 0.08 | 0.08 | 66 | 1016.4 |
| 20260831220522 | 68 | 44 | 4.0 | 11.0 | 0.00 | 0.08 | 0.08 | 64 | 1016.6 |
| 20260831220018 | 68 | 56 | 7.0 | 16.0 | 0.00 | 0.08 | 0.08 | 65 | 1016.5 |
| 20260831215514 | 69 | 63 | 9.0 | 17.0 | 0.00 | 0.08 | 0.08 | 63 | 1016.6 |
| 20260831215009 | 69 | 39 | 8.0 | 15.0 | 0.00 | 0.08 | 0.08 | 63 | 1016.8 |
| 20260831214507 | 68 | 52 | 13.0 | 19.0 | 0.00 | 0.08 | 0.08 | 65 | 1016.9 |
| 20260831214002 | 69 | 72 | 7.0 | 19.0 | 0.00 | 0.08 | 0.08 | 64 | 1016.6 |
| 20260831213459 | 72 | 12 | 3.0 | 6.0 | 0.00 | 0.08 | 0.08 | 61 | 1016.8 |
| 20260831212958 | 73 | 58 | 3.0 | 9.0 | 0.00 | 0.08 | 0.08 | 59 | 1016.8 |
| 20260831212454 | 73 | 94 | 2.0 | 5.0 | 0.00 | 0.08 | 0.08 | 57 | 1016.9 |
| 20260831211949 | 72 | 8 | 1.0 | 3.0 | 0.02 | 0.08 | 0.08 | 63 | 1016.9 |
| 20260831211444 | 72 | 3 | 4.0 | 6.0 | 0.02 | 0.08 | 0.08 | 61 | 1017.1 |
| 20260831210943 | 72 | 88 | 2.0 | 8.0 | 0.00 | 0.07 | 0.07 | 57 | 1017.0 |
| 20260831210439 | 72 | 64 | 3.0 | 10.0 | 0.00 | 0.07 | 0.07 | 56 | 1017.2 |
| 20260831205934 | 72 | 166 | 3.0 | 5.0 | 0.00 | 0.07 | 0.07 | 55 | 1017.1 |
| 20260831205430 | 72 | 210 | 4.0 | 18.0 | 0.00 | 0.07 | 0.07 | 54 | 1017.1 |
| 20260831204925 | 72 | 199 | 5.0 | 9.0 | 0.00 | 0.07 | 0.07 | 54 | 1017.2 |
| 20260831204423 | 73 | 54 | 11.0 | 18.0 | 0.00 | 0.07 | 0.07 | 54 | 1017.1 |
| 20260831203918 | 72 | 55 | 12.0 | 15.0 | 0.00 | 0.07 | 0.07 | 54 | 1017.0 |
| 20260831203412 | 71 | 102 | 4.0 | 16.0 | 0.00 | 0.07 | 0.07 | 56 | 1017.1 |
| 20260831202910 | 71 | 10 | 4.0 | 11.0 | 0.00 | 0.07 | 0.07 | 60 | 1017.0 |
| 20260831202405 | 70 | 74 | 5.0 | 15.0 | 0.00 | 0.07 | 0.07 | 63 | 1017.2 |
| 20260831201900 | 70 | 77 | 6.0 | 17.0 | 0.00 | 0.07 | 0.07 | 63 | 1017.0 |
| 20260831201358 | 70 | 72 | 10.0 | 18.0 | 0.00 | 0.07 | 0.07 | 63 | 1017.1 |
| 20260831200855 | 70 | 56 | 5.0 | 18.0 | 0.00 | 0.07 | 0.07 | 63 | 1017.2 |
| 20260831200349 | 71 | 13 | 2.0 | 11.0 | 0.00 | 0.07 | 0.07 | 62 | 1017.4 |
| 20260831195844 | 71 | 56 | 8.0 | 15.0 | 0.00 | 0.07 | 0.07 | 62 | 1016.9 |
| 20260831195340 | 71 | 60 | 10.0 | 19.0 | 0.00 | 0.07 | 0.07 | 61 | 1017.2 |
| 20260831194835 | 71 | 69 | 8.0 | 14.0 | 0.00 | 0.07 | 0.07 | 60 | 1017.0 |
| 20260831194330 | 71 | 357 | 2.0 | 20.0 | 0.00 | 0.07 | 0.07 | 59 | 1017.1 |
| 20260831193829 | 71 | 84 | 1.0 | 5.0 | 0.00 | 0.07 | 0.07 | 61 | 1017.0 |
| 20260831193325 | 71 | 38 | 13.0 | 16.0 | 0.00 | 0.07 | 0.07 | 60 | 1017.1 |
| 20260831192820 | 71 | 55 | 7.0 | 14.0 | 0.00 | 0.07 | 0.07 | 60 | 1017.4 |
| 20260831192315 | 71 | 105 | 9.0 | 15.0 | 0.00 | 0.07 | 0.07 | 60 | 1017.2 |
| 20260831191811 | 72 | 97 | 5.0 | 15.0 | 0.00 | 0.07 | 0.07 | 60 | 1016.9 |
| 20260831191307 | 72 | 73 | 7.0 | 18.0 | 0.00 | 0.07 | 0.07 | 59 | 1016.5 |
| 20260831190802 | 72 | 24 | 7.0 | 14.0 | 0.00 | 0.07 | 0.07 | 58 | 1017.2 |
| 20260831190302 | 72 | 128 | 3.0 | 12.0 | 0.00 | 0.07 | 0.07 | 63 | 1017.1 |
| 20260831185756 | 72 | 49 | 6.0 | 15.0 | 0.00 | 0.07 | 0.07 | 60 | 1017.9 |
| 20260831185252 | 72 | 38 | 12.0 | 13.0 | 0.00 | 0.07 | 0.07 | 58 | 1017.6 |
| 20260831184750 | 72 | 105 | 5.0 | 8.0 | 0.00 | 0.07 | 0.07 | 61 | 1018.1 |
| 20260831184246 | 72 | 64 | 5.0 | 9.0 | 0.00 | 0.07 | 0.07 | 62 | 1017.9 |
| 20260831183742 | 72 | 100 | 2.0 | 6.0 | 0.00 | 0.07 | 0.07 | 65 | 1017.8 |
| 20260831183236 | 72 | 131 | 3.0 | 15.0 | 0.00 | 0.07 | 0.07 | 62 | 1017.7 |
| 20260831182735 | 71 | 100 | 11.0 | 19.0 | 0.00 | 0.07 | 0.07 | 62 | 1018.1 |
| 20260831182230 | 71 | 102 | 6.0 | 17.0 | 0.00 | 0.07 | 0.07 | 65 | 1017.9 |
| 20260831181730 | 70 | 56 | 6.0 | 9.0 | 0.00 | 0.07 | 0.07 | 70 | 1017.9 |
| 20260831181225 | 70 | 115 | 2.0 | 4.0 | 0.00 | 0.07 | 0.07 | 73 | 1017.6 |
| 20260831180720 | 69 | 89 | 0.0 | 5.0 | 0.00 | 0.07 | 0.07 | 72 | 1017.7 |
| 20260831180215 | 68 | 41 | 8.0 | 12.0 | 0.07 | 0.07 | 0.07 | 73 | 1017.8 |
| 20260831175714 | 66 | 49 | 4.0 | 6.0 | 0.42 | 0.07 | 0.07 | 80 | 1017.7 |
| 20260831175211 | 69 | 357 | 3.0 | 3.0 | 0.26 | 0.04 | 0.04 | 76 | 1017.9 |
| 20260831174711 | 69 | 70 | 4.0 | 6.0 | 0.02 | 0.00 | 0.00 | 70 | 1017.9 |
| 20260831174207 | 70 | 58 | 2.0 | 7.0 | 0.00 | 0.00 | 0.00 | 66 | 1017.8 |
| 20260831173705 | 70 | 84 | 2.0 | 10.0 | 0.00 | 0.00 | 0.00 | 64 | 1017.6 |
| 20260831173201 | 72 | 14 | 2.0 | 3.0 | 0.00 | 0.00 | 0.00 | 62 | 1017.8 |
| 20260831172700 | 71 | 73 | 4.0 | 11.0 | 0.00 | 0.00 | 0.00 | 61 | 1017.9 |